FW5790 Weather Reports


time (UTC)temp
C
wind
direction
speed
KPH
gust
KPH
rain 1hr
cm
rain 24hr
cm
rain mn
cm
humidity
%
barometer
mb
20260905224555 30 0 0.0 0.0 0.00 0.05 0.05 74 1012.7
20260905223052 30 0 0.0 0.0 0.00 0.05 0.05 71 1012.3
20260905221552 31 0 0.0 0.0 0.00 0.05 0.05 69 1012.5
20260905220100 31 0 0.0 1.6 0.00 0.05 0.05 69 1012.3
20260905214552 31 132 0.0 1.6 0.00 0.05 0.05 68 1012.3
20260905213052 31 0 0.0 0.0 0.00 0.05 0.05 68 1012.5
20260905211553 31 0 0.0 0.0 0.00 0.05 0.05 69 1012.5
20260905210115 31 0 0.0 1.6 0.00 0.05 0.05 65 1012.6
20260905204558 31 0 0.0 3.2 0.00 0.05 0.05 64 1012.9
20260905203101 31 0 0.0 3.2 0.00 0.05 0.05 64 1012.9
20260905201600 32 0 0.0 1.6 0.00 0.05 0.05 65 1013.2
20260905200117 32 128 0.0 1.6 0.00 0.05 0.05 63 1013.4
20260905194607 33 0 0.0 1.6 0.00 0.05 0.05 63 1013.5
20260905193050 33 0 0.0 3.2 0.00 0.05 0.05 59 1013.8
20260905191603 33 0 0.0 1.6 0.00 0.05 0.05 59 1014.1
20260905190057 33 160 0.0 1.6 0.00 0.05 0.05 57 1014.3
20260905184624 33 255 0.0 3.2 0.00 0.05 0.05 58 1014.3
20260905183053 33 0 0.0 1.6 0.00 0.05 0.05 61 1014.4
20260905181602 33 136 0.0 1.6 0.00 0.05 0.05 59 1014.6
20260905180057 33 0 1.6 6.4 0.00 0.05 0.05 59 1014.9
20260905174629 33 186 0.0 3.2 0.00 0.05 0.05 59 1014.9
20260905173052 33 250 0.0 3.2 0.00 0.05 0.05 62 1015.0
20260905171550 32 0 0.0 4.8 0.00 0.05 0.05 57 1015.3
20260905170057 32 96 0.0 1.6 0.00 0.05 0.05 59 1015.6
20260905164554 31 269 0.0 4.8 0.00 0.05 0.05 60 1015.8
20260905163053 31 248 0.0 4.8 0.00 0.05 0.05 60 1016.1
20260905161549 30 247 1.6 4.8 0.00 0.05 0.05 65 1016.0
20260905160055 30 272 0.0 4.8 0.00 0.05 0.05 63 1015.9
20260905154612 30 352 1.6 4.8 0.00 0.05 0.05 67 1015.8
20260905153052 28 250 1.6 6.4 0.00 0.05 0.05 69 1015.8
20260905151613 28 260 1.6 6.4 0.00 0.05 0.05 73 1015.8
20260905150056 27 232 0.0 6.4 0.00 0.05 0.05 75 1016.0
20260905144552 27 264 3.2 8.0 0.00 0.05 0.05 72 1016.1
20260905143052 27 237 0.0 6.4 0.00 0.05 0.05 75 1016.4
20260905141557 26 32 0.0 6.4 0.00 0.05 0.05 76 1016.7
20260905140056 25 259 1.6 11.3 0.00 0.05 0.05 77 1016.6
20260905134552 25 298 1.6 11.3 0.00 0.05 0.05 77 1016.7
20260905133057 25 260 4.8 11.3 0.00 0.05 0.05 79 1016.8
20260905131605 24 264 1.6 9.7 0.00 0.05 0.05 82 1017.2
20260905130056 23 0 3.2 11.3 0.00 0.05 0.05 84 1017.3
20260905124553 23 197 3.2 9.7 0.00 0.05 0.05 87 1017.0
20260905123102 23 198 4.8 17.7 0.00 0.05 0.05 86 1017.0
20260905121600 23 199 4.8 20.9 0.00 0.05 0.05 88 1016.4
20260905120054 23 181 0.0 3.2 0.00 0.05 0.05 91 1015.6
20260905114600 23 0 0.0 1.6 0.00 0.05 0.05 90 1015.7
20260905113057 24 41 0.0 4.8 0.05 0.05 0.05 89 1016.1
20260905111641 24 226 0.0 3.2 0.00 0.00 0.00 87 1015.4
20260905110053 25 0 0.0 6.4 0.00 0.00 0.00 87 1015.7
20260905104554 25 0 0.0 1.6 0.00 0.00 0.00 87 1015.2
20260905103058 25 0 0.0 1.6 0.00 0.00 0.00 88 1015.2
20260905101604 25 0 0.0 6.4 0.00 0.00 0.00 88 1014.6
20260905100056 24 206 3.2 6.4 0.00 0.00 0.00 89 1014.7
20260905094553 24 0 0.0 0.0 0.00 0.00 0.00 90 1014.6
20260905093105 24 0 0.0 0.0 0.00 0.00 0.00 90 1014.5
20260905091553 24 0 0.0 4.8 0.00 0.00 0.00 90 1014.6
20260905090051 25 0 0.0 0.0 0.00 0.00 0.00 90 1014.1
20260905084556 24 0 0.0 1.6 0.00 0.00 0.00 90 1014.4
20260905083100 24 129 0.0 1.6 0.00 0.00 0.00 90 1014.2
20260905081552 24 0 0.0 0.0 0.00 0.00 0.00 90 1013.9
20260905080100 24 0 0.0 0.0 0.00 0.00 0.00 90 1014.1
20260905074600 24 0 0.0 0.0 0.00 0.00 0.00 90 1014.0
20260905073057 24 0 0.0 0.0 0.00 0.00 0.00 90 1014.3
20260905071555 24 0 0.0 0.0 0.00 0.00 0.00 90 1014.5
20260905070053 25 0 0.0 0.0 0.00 0.00 0.00 90 1014.4
20260905064605 25 0 0.0 0.0 0.00 0.00 0.00 90 1014.6
20260905063056 25 0 0.0 0.0 0.00 0.00 0.00 90 1014.8
20260905061557 25 0 0.0 0.0 0.00 0.00 0.00 89 1015.0
20260905060052 25 0 0.0 0.0 0.00 0.00 0.00 90 1015.3
20260905054600 25 0 0.0 0.0 0.00 0.00 0.00 89 1015.2
20260905053100 25 0 0.0 0.0 0.00 0.00 0.00 89 1015.4
20260905051553 25 0 0.0 0.0 0.00 0.00 0.00 89 1015.3
20260905050056 25 0 0.0 0.0 0.00 0.00 0.00 89 1015.3
20260905044552 25 0 0.0 0.0 0.00 0.00 0.00 88 1015.5
20260905043059 25 0 0.0 0.0 0.00 0.00 0.00 88 1015.5
20260905041559 25 0 0.0 0.0 0.00 0.00 0.00 87 1015.5
20260905040056 26 0 0.0 0.0 0.00 0.00 0.00 86 1015.6
20260905034611 26 0 0.0 1.6 0.00 0.00 0.00 86 1015.5
20260905033115 26 0 0.0 0.0 0.00 0.00 0.00 85 1015.5
20260905031602 26 0 0.0 0.0 0.00 0.00 0.00 86 1015.5
20260905030057 26 0 0.0 0.0 0.00 0.00 0.00 87 1015.6
20260905024550 26 0 0.0 0.0 0.00 0.00 0.00 86 1015.7
20260905023120 26 0 0.0 0.0 0.00 0.00 0.00 87 1015.5
20260905021552 26 0 0.0 0.0 0.00 0.00 0.00 87 1015.5
20260905020051 26 0 0.0 0.0 0.00 0.00 0.00 85 1015.5
20260905014552 27 0 0.0 0.0 0.00 0.00 0.00 86 1015.5
20260905013058 27 0 0.0 0.0 0.00 0.00 0.00 85 1015.2
20260905011600 27 0 0.0 0.0 0.00 0.00 0.00 85 1015.0
20260905010105 27 0 0.0 0.0 0.00 0.00 0.00 85 1014.9
20260905004553 28 0 0.0 0.0 0.00 0.00 0.00 85 1014.7
20260905003106 28 0 0.0 0.0 0.00 0.00 0.00 83 1014.6
20260905001601 28 0 0.0 0.0 0.00 0.00 0.00 81 1014.4
20260904234551 30 0 0.0 0.0 0.00 0.00 0.00 78 1014.3
20260904233057 30 0 0.0 0.0 0.00 0.00 0.00 75 1014.3
20260904231556 30 0 0.0 0.0 0.00 0.00 0.00 71 1014.5
20260904230110 31 0 0.0 0.0 0.00 0.00 0.00 71 1014.6